| time (UTC) | temp C | wind direction | speed KPH | gust KPH | rain 1hr cm | rain 24hr cm | rain mn cm | humidity % | barometer mb |
| 20260506163515 | 13 | 225 | 4.8 | 9.7 | 0.00 | 0.18 | 0.00 | 63 | 1010.5 |
| 20260506162516 | 13 | 0.0 | 3.2 | 0.00 | 0.18 | 0.00 | 62 | 1010.5 | |
| 20260506161516 | 13 | 225 | 9.7 | 16.1 | 0.00 | 0.18 | 0.00 | 62 | 1010.5 |
| 20260506160515 | 13 | 203 | 9.7 | 16.1 | 0.00 | 0.18 | 0.00 | 63 | 1010.5 |
| 20260506155516 | 13 | 180 | 11.3 | 22.5 | 0.00 | 0.18 | 0.00 | 63 | 1010.5 |
| 20260506154516 | 13 | 203 | 11.3 | 22.5 | 0.00 | 0.18 | 0.00 | 62 | 1010.7 |
| 20260506153515 | 13 | 225 | 8.0 | 24.1 | 0.00 | 0.18 | 0.00 | 62 | 1010.6 |
| 20260506152517 | 13 | 225 | 12.9 | 20.9 | 0.00 | 0.18 | 0.00 | 60 | 1010.6 |
| 20260506151517 | 14 | 225 | 11.3 | 20.9 | 0.00 | 0.18 | 0.00 | 60 | 1010.6 |
| 20260506150518 | 13 | 203 | 11.3 | 22.5 | 0.00 | 0.18 | 0.00 | 59 | 1010.5 |
| 20260506145558 | 14 | 203 | 8.0 | 19.3 | 0.00 | 0.18 | 0.00 | 59 | 1010.7 |
| 20260506144517 | 15 | 180 | 6.4 | 14.5 | 0.00 | 0.18 | 0.00 | 59 | 1010.8 |
| 20260506143539 | 15 | 203 | 9.7 | 16.1 | 0.00 | 0.18 | 0.00 | 61 | 1010.9 |
| 20260506142517 | 13 | 180 | 8.0 | 16.1 | 0.00 | 0.18 | 0.00 | 63 | 1010.7 |
| 20260506141518 | 14 | 203 | 12.9 | 22.5 | 0.00 | 0.18 | 0.00 | 64 | 1010.9 |
| 20260506140518 | 14 | 203 | 14.5 | 22.5 | 0.00 | 0.18 | 0.00 | 66 | 1011.2 |
| 20260506135517 | 13 | 203 | 14.5 | 25.7 | 0.00 | 0.18 | 0.00 | 69 | 1011.2 |
| 20260506134538 | 13 | 225 | 12.9 | 20.9 | 0.00 | 0.18 | 0.00 | 69 | 1011.5 |
| 20260506133517 | 13 | 203 | 11.3 | 29.0 | 0.00 | 0.18 | 0.00 | 70 | 1011.5 |
| 20260506132517 | 13 | 225 | 8.0 | 17.7 | 0.00 | 0.18 | 0.00 | 74 | 1011.9 |
| 20260506131518 | 12 | 180 | 6.4 | 17.7 | 0.00 | 0.18 | 0.00 | 73 | 1011.5 |
| 20260506130517 | 12 | 225 | 9.7 | 20.9 | 0.00 | 0.18 | 0.00 | 75 | 1011.7 |
| 20260506125517 | 11 | 180 | 4.8 | 9.7 | 0.00 | 0.18 | 0.00 | 74 | 1011.6 |
| 20260506124517 | 11 | 113 | 4.8 | 9.7 | 0.00 | 0.18 | 0.00 | 74 | 1011.7 |
| 20260506123517 | 12 | 158 | 1.6 | 8.0 | 0.00 | 0.18 | 0.00 | 75 | 1011.7 |
| 20260506122517 | 11 | 113 | 3.2 | 9.7 | 0.00 | 0.18 | 0.00 | 78 | 1011.8 |
| 20260506121517 | 11 | 180 | 6.4 | 12.9 | 0.00 | 0.18 | 0.00 | 78 | 1011.5 |
| 20260506120517 | 11 | 158 | 6.4 | 11.3 | 0.00 | 0.18 | 0.00 | 78 | 1011.6 |
| 20260506115537 | 11 | 135 | 4.8 | 12.9 | 0.00 | 0.18 | 0.00 | 79 | 1011.7 |
| 20260506114517 | 11 | 180 | 4.8 | 12.9 | 0.00 | 0.18 | 0.00 | 80 | 1012.0 |
| 20260506113537 | 10 | 180 | 8.0 | 16.1 | 0.00 | 0.18 | 0.00 | 80 | 1011.8 |
| 20260506112517 | 11 | 203 | 4.8 | 12.9 | 0.00 | 0.18 | 0.00 | 82 | 1012.2 |
| 20260506111518 | 10 | 180 | 9.7 | 14.5 | 0.00 | 0.18 | 0.00 | 83 | 1012.0 |
| 20260506110537 | 10 | 158 | 8.0 | 14.5 | 0.00 | 0.18 | 0.00 | 86 | 1012.1 |
| 20260506105517 | 10 | 158 | 4.8 | 14.5 | 0.00 | 0.18 | 0.00 | 88 | 1012.3 |
| 20260506104517 | 10 | 180 | 6.4 | 12.9 | 0.00 | 0.18 | 0.00 | 91 | 1012.3 |
| 20260506103538 | 9 | 203 | 8.0 | 12.9 | 0.00 | 0.18 | 0.00 | 92 | 1012.4 |
| 20260506102517 | 8 | 180 | 6.4 | 12.9 | 0.00 | 0.18 | 0.00 | 92 | 1012.2 |
| 20260506101517 | 8 | 158 | 4.8 | 9.7 | 0.00 | 0.18 | 0.00 | 93 | 1012.1 |
| 20260506100517 | 7 | 180 | 8.0 | 11.3 | 0.00 | 0.18 | 0.00 | 93 | 1012.0 |
| 20260506095517 | 7 | 180 | 9.7 | 16.1 | 0.00 | 0.18 | 0.00 | 94 | 1012.1 |
| 20260506094517 | 7 | 180 | 6.4 | 14.5 | 0.00 | 0.18 | 0.00 | 94 | 1012.0 |
| 20260506093518 | 7 | 203 | 9.7 | 14.5 | 0.00 | 0.18 | 0.00 | 94 | 1011.8 |
| 20260506092517 | 7 | 180 | 8.0 | 12.9 | 0.00 | 0.18 | 0.00 | 94 | 1011.6 |
| 20260506091537 | 7 | 135 | 4.8 | 9.7 | 0.00 | 0.18 | 0.00 | 94 | 1011.6 |
| 20260506090517 | 7 | 113 | 6.4 | 12.9 | 0.00 | 0.18 | 0.00 | 94 | 1011.5 |
| 20260506085516 | 7 | 180 | 6.4 | 12.9 | 0.00 | 0.18 | 0.00 | 94 | 1011.5 |
| 20260506084517 | 7 | 180 | 4.8 | 9.7 | 0.00 | 0.18 | 0.00 | 94 | 1011.3 |
| 20260506083516 | 8 | 180 | 4.8 | 11.3 | 0.00 | 0.18 | 0.00 | 95 | 1011.5 |
| 20260506082517 | 7 | 248 | 3.2 | 9.7 | 0.00 | 0.18 | 0.00 | 95 | 1011.1 |
| 20260506081517 | 7 | 225 | 4.8 | 9.7 | 0.00 | 0.18 | 0.00 | 95 | 1011.1 |
| 20260506080517 | 6 | 180 | 3.2 | 8.0 | 0.00 | 0.18 | 0.00 | 95 | 1011.1 |
| 20260506073516 | 6 | 225 | 3.2 | 8.0 | 0.00 | 0.18 | 0.00 | 95 | 1011.1 |
| 20260506072537 | 6 | 203 | 3.2 | 8.0 | 0.00 | 0.18 | 0.00 | 95 | 1011.2 |
| 20260506071517 | 6 | 225 | 3.2 | 6.4 | 0.00 | 0.18 | 0.00 | 95 | 1011.1 |
| 20260506070516 | 6 | 0.0 | 1.6 | 0.00 | 0.18 | 0.00 | 95 | 1011.2 | |
| 20260506062517 | 5 | 68 | 1.6 | 3.2 | 0.00 | 0.18 | 0.00 | 95 | 1010.8 |
| 20260506061537 | 4 | 0.0 | 3.2 | 0.00 | 0.18 | 0.00 | 95 | 1010.7 | |
| 20260506060516 | 3 | 45 | 3.2 | 8.0 | 0.00 | 0.18 | 0.00 | 95 | 1010.2 |
| 20260506050536 | 3 | 0.0 | 1.6 | 0.00 | 0.18 | 0.00 | 95 | 1010.1 | |
| 20260506044516 | 3 | 338 | 3.2 | 6.4 | 0.00 | 0.20 | 0.00 | 95 | 1010.3 |
| 20260506043516 | 3 | 0 | 3.2 | 6.4 | 0.00 | 0.20 | 0.00 | 95 | 1010.3 |
| 20260506042516 | 3 | 248 | 1.6 | 8.0 | 0.00 | 0.20 | 0.00 | 95 | 1010.2 |
| 20260506041516 | 3 | 0.0 | 0.0 | 0.00 | 0.20 | 0.00 | 95 | 1010.1 | |
| 20260506040516 | 3 | 0.0 | 0.0 | 0.00 | 0.20 | 0.00 | 95 | 1010.2 | |
| 20260506035516 | 3 | 0.0 | 0.0 | 0.00 | 0.20 | 0.00 | 95 | 1010.5 | |
| 20260506034516 | 3 | 0.0 | 0.0 | 0.00 | 0.20 | 0.00 | 94 | 1010.5 | |
| 20260506033516 | 3 | 23 | 3.2 | 6.4 | 0.00 | 0.20 | 0.00 | 94 | 1010.4 |
| 20260506032517 | 3 | 0 | 1.6 | 6.4 | 0.00 | 0.20 | 0.00 | 95 | 1010.5 |
| 20260506031516 | 3 | 23 | 4.8 | 8.0 | 0.00 | 0.20 | 0.00 | 94 | 1010.7 |
| 20260506030516 | 3 | 0.0 | 1.6 | 0.00 | 0.20 | 0.00 | 94 | 1010.5 | |
| 20260506025516 | 3 | 23 | 3.2 | 6.4 | 0.00 | 0.20 | 0.00 | 94 | 1010.5 |
| 20260506024516 | 4 | 23 | 3.2 | 6.4 | 0.00 | 0.20 | 0.00 | 95 | 1010.5 |
| 20260506023516 | 3 | 23 | 1.6 | 8.0 | 0.00 | 0.20 | 0.00 | 95 | 1010.7 |
| 20260506022516 | 4 | 23 | 3.2 | 6.4 | 0.00 | 0.20 | 0.00 | 94 | 1010.8 |
| 20260506021516 | 4 | 23 | 3.2 | 6.4 | 0.00 | 0.20 | 0.00 | 94 | 1010.9 |
| 20260506020516 | 4 | 23 | 1.6 | 6.4 | 0.00 | 0.20 | 0.00 | 94 | 1011.1 |
| 20260506015516 | 4 | 0 | 3.2 | 6.4 | 0.00 | 0.20 | 0.00 | 94 | 1010.8 |
| 20260506014515 | 4 | 45 | 4.8 | 6.4 | 0.00 | 0.20 | 0.00 | 94 | 1011.1 |
| 20260506013516 | 5 | 23 | 3.2 | 8.0 | 0.00 | 0.20 | 0.00 | 94 | 1011.1 |
| 20260506012516 | 5 | 0.0 | 0.0 | 0.00 | 0.20 | 0.00 | 94 | 1011.2 | |
| 20260506011516 | 5 | 45 | 1.6 | 6.4 | 0.00 | 0.20 | 0.00 | 94 | 1011.1 |
| 20260506010536 | 5 | 23 | 4.8 | 11.3 | 0.00 | 0.20 | 0.00 | 94 | 1011.2 |
| 20260506005537 | 5 | 45 | 3.2 | 8.0 | 0.00 | 0.20 | 0.00 | 94 | 1011.3 |
| 20260506004515 | 5 | 0 | 1.6 | 6.4 | 0.00 | 0.20 | 0.00 | 94 | 1011.3 |
| 20260506003515 | 5 | 23 | 1.6 | 6.4 | 0.00 | 0.20 | 0.00 | 94 | 1011.3 |
| 20260506002536 | 5 | 0 | 1.6 | 3.2 | 0.00 | 0.20 | 0.00 | 94 | 1011.0 |
| 20260506001515 | 5 | 23 | 1.6 | 6.4 | 0.00 | 0.20 | 0.00 | 94 | 1011.1 |
| 20260506000515 | 5 | 0 | 1.6 | 6.4 | 0.00 | 0.20 | 0.00 | 94 | 1011.3 |
| 20260505235517 | 5 | 23 | 3.2 | 6.4 | 0.00 | 0.20 | 0.20 | 94 | 1011.3 |
| 20260505234516 | 5 | 0.0 | 3.2 | 0.00 | 0.20 | 0.20 | 94 | 1011.0 | |
| 20260505233516 | 5 | 0.0 | 1.6 | 0.00 | 0.20 | 0.20 | 94 | 1011.6 | |
| 20260505232516 | 5 | 315 | 1.6 | 3.2 | 0.00 | 0.20 | 0.20 | 94 | 1011.6 |
| 20260505231517 | 6 | 338 | 1.6 | 4.8 | 0.00 | 0.20 | 0.20 | 94 | 1011.5 |
| 20260505230537 | 5 | 23 | 1.6 | 6.4 | 0.00 | 0.20 | 0.20 | 94 | 1011.4 |
| 20260505225517 | 6 | 23 | 3.2 | 6.4 | 0.00 | 0.20 | 0.20 | 94 | 1011.4 |
| 20260505224517 | 6 | 0 | 1.6 | 6.4 | 0.00 | 0.20 | 0.20 | 94 | 1011.5 |
| 20260505223516 | 6 | 23 | 1.6 | 3.2 | 0.00 | 0.20 | 0.20 | 94 | 1011.6 |
| 20260505222537 | 6 | 0.0 | 1.6 | 0.00 | 0.20 | 0.20 | 94 | 1011.9 | |
| 20260505221517 | 6 | 0 | 3.2 | 8.0 | 0.00 | 0.20 | 0.20 | 94 | 1012.0 |
| 20260505220517 | 6 | 293 | 1.6 | 6.4 | 0.00 | 0.20 | 0.20 | 94 | 1011.9 |
| 20260505215516 | 6 | 23 | 1.6 | 3.2 | 0.00 | 0.20 | 0.20 | 94 | 1012.0 |
| 20260505214516 | 6 | 0.0 | 3.2 | 0.00 | 0.20 | 0.20 | 93 | 1012.1 | |
| 20260505213516 | 6 | 0 | 1.6 | 3.2 | 0.00 | 0.20 | 0.20 | 94 | 1012.1 |
| 20260505212517 | 6 | 23 | 4.8 | 6.4 | 0.00 | 0.20 | 0.20 | 93 | 1012.1 |
| 20260505211536 | 7 | 0.0 | 0.0 | 0.00 | 0.23 | 0.20 | 93 | 1012.1 | |
| 20260505210516 | 6 | 23 | 3.2 | 6.4 | 0.00 | 0.23 | 0.20 | 93 | 1011.8 |
| 20260505205516 | 7 | 45 | 1.6 | 3.2 | 0.00 | 0.28 | 0.20 | 93 | 1011.9 |
| 20260505204516 | 7 | 23 | 4.8 | 6.4 | 0.00 | 0.38 | 0.20 | 93 | 1011.8 |
| 20260505203516 | 7 | 0.0 | 0.0 | 0.00 | 0.53 | 0.20 | 93 | 1011.6 | |
| 20260505202516 | 7 | 0.0 | 0.0 | 0.00 | 0.56 | 0.20 | 93 | 1011.1 | |
| 20260505201516 | 7 | 0.0 | 0.0 | 0.00 | 0.58 | 0.20 | 93 | 1010.9 | |
| 20260505200516 | 7 | 0.0 | 0.0 | 0.00 | 0.58 | 0.20 | 92 | 1010.7 | |
| 20260505195516 | 7 | 0.0 | 0.0 | 0.00 | 0.58 | 0.20 | 92 | 1010.4 | |
| 20260505194516 | 8 | 0.0 | 0.0 | 0.00 | 0.58 | 0.20 | 92 | 1010.5 | |
| 20260505193516 | 8 | 0.0 | 0.0 | 0.00 | 0.58 | 0.20 | 92 | 1010.5 | |
| 20260505192516 | 8 | 0.0 | 0.0 | 0.00 | 0.58 | 0.20 | 92 | 1010.4 | |
| 20260505191516 | 8 | 0.0 | 0.0 | 0.00 | 0.58 | 0.20 | 91 | 1010.3 | |
| 20260505190516 | 8 | 0.0 | 0.0 | 0.00 | 0.58 | 0.20 | 91 | 1010.3 | |
| 20260505185516 | 8 | 0.0 | 0.0 | 0.00 | 0.58 | 0.20 | 91 | 1010.5 | |
| 20260505184515 | 8 | 0.0 | 0.0 | 0.00 | 0.58 | 0.20 | 90 | 1009.8 | |
| 20260505183516 | 8 | 0.0 | 0.0 | 0.03 | 0.58 | 0.20 | 90 | 1009.6 | |
| 20260505182515 | 8 | 0.0 | 0.0 | 0.10 | 0.58 | 0.20 | 89 | 1009.4 | |
| 20260505181515 | 8 | 0.0 | 0.0 | 0.15 | 0.58 | 0.20 | 89 | 1009.4 | |
| 20260505180536 | 8 | 0.0 | 0.0 | 0.18 | 0.58 | 0.20 | 88 | 1009.5 | |
| 20260505175515 | 9 | 180 | 1.6 | 6.4 | 0.18 | 0.58 | 0.20 | 87 | 1009.6 |
| 20260505174536 | 8 | 0.0 | 4.8 | 0.18 | 0.58 | 0.20 | 86 | 1009.6 | |
| 20260505173535 | 8 | 203 | 11.3 | 17.7 | 0.15 | 0.56 | 0.18 | 83 | 1009.5 |
| 20260505173039 | 9 | 68 | 4.8 | 9.7 | 0.13 | 0.51 | 0.15 | 78 | 1009.1 |